Location: Gombori
(14.9797°N, 2.9419°W)
Time: 01:49:09
(UTC+00:00)

Meteor 2-13 Rocket - Pass Details

Date: 05 December 2021
Orbit: 936 x 957 km, 82.5° (Epoch: 24 January)

Event Time Altitude Azimuth Distance (km) Brightness Sun altitude
Rises 03:19:44 0° 142° (SE) 3,620 8.1 -42.9°
Reaches altitude 10° 03:23:41 10° 117° (ESE) 2,672 7.4 -42.0°
Maximum altitude 03:26:30 14° 89° (E) 2,418 7.1 -41.3°
Drops below altitude 10° 03:29:20 10° 61° (ENE) 2,667 7.2 -40.7°
Sets 03:33:13 0° 36° (NE) 3,608 7.7 -39.8°
